This is the latest recevied weather packets stored in our database for station/object K3JSE-2. If no packets are shown the sender has not sent any weather packets the latest 10 day(s).
| Time | Temp. | Humidity | Pressure | Rain* | Wind** | Luminosity | Snow |
|---|---|---|---|---|---|---|---|
| 1778172668 | 15° C | 45% | 1010.7 hPa | 0 mm | - | - | - |
| 1778172645 | 15° C | 43% | 1010.7 hPa | 0 mm | - | - | - |
| 1778172392 | 15° C | 46% | 1010.8 hPa | 0 mm | - | - | - |
| 1778172127 | 15° C | 45% | 1010.9 hPa | 0 mm | - | - | - |
| 1778171920 | 14.44° C | 46% | 1010.9 hPa | 0 mm | - | - | - |
| 1778171878 | 14.44° C | 43% | 1010.9 hPa | 0 mm | - | - | - |
| 1778171578 | 14.44° C | 46% | 1011 hPa | 0 mm | - | - | - |
| 1778171294 | 15° C | 51% | 1011 hPa | 0 mm | - | - | - |
| 1778171053 | 14.44° C | 50% | 1011 hPa | 0 mm | - | - | - |
| 1778170798 | 14.44° C | 47% | 1011.1 hPa | 0 mm | - | - | - |
| 1778170543 | 14.44° C | 45% | 1011.2 hPa | 0 mm | - | - | - |
| 1778170258 | 14.44° C | 47% | 1011.2 hPa | 0 mm | - | - | - |
| 1778169983 | 14.44° C | 51% | 1011.2 hPa | 0 mm | - | - | - |
| 1778169795 | 14.44° C | 46% | 1011.2 hPa | 0 mm | - | - | - |
| 1778169698 | 13.89° C | 49% | 1011.4 hPa | 0 mm | - | - | - |
| 1778169428 | 13.89° C | 50% | 1011.3 hPa | 0 mm | - | - | - |
| 1778169148 | 13.89° C | 52% | 1011.2 hPa | 0 mm | - | - | - |
| 1778169040 | 14.44° C | 57% | 1011.3 hPa | 0 mm | - | - | - |
| 1778168889 | 13.89° C | 52% | 1011.3 hPa | 0 mm | - | - | - |
| 1778168613 | 13.89° C | 51% | 1011.4 hPa | 0 mm | - | - | - |
| 1778168328 | 13.89° C | 48% | 1011.4 hPa | 0 mm | - | - | - |
| 1778168325 | 13.89° C | 48% | 1011.4 hPa | 0 mm | - | - | - |
| 1778168083 | 13.89° C | 54% | 1011.5 hPa | 0 mm | - | - | - |
| 1778167823 | 13.89° C | 56% | 1011.5 hPa | 0 mm | - | - | - |
| 1778167615 | 13.89° C | 53% | 1011.6 hPa | 0 mm | - | - | - |
* Rain latest hour (hover to see other rain measurements)
** Current wind speed in m/s (hover to see current wind gust speed)